Regional Weather Roundup
Issued by NWS

Home | Current Version | Previous Version | Graphics & Text | Print | Product List | Glossary On
Versions: 1 2 3 4 5 6 7 8 9 10 11 12 13 14 15 16 17 18 19 20 21 22 23 24 25 26 27 28 29 30 31 32 33 34 35 36 37 38 39 40 41 42 43 44 45 46 47 48 49 50
000
ASUS43 KLOT 222108
RWRIL

ILLINOIS REGIONAL WEATHER ROUNDUP
NATIONAL WEATHER SERVICE CHICAGO/ROMEOVILLE IL
300 PM CST WED NOV 22 2017

NOTE: "FAIR" INDICATES FEW OR NO CLOUDS BELOW 12,000 FEET WITH NO
SIGNIFICANT WEATHER AND/OR OBSTRUCTIONS TO VISIBILITY.

* THESE STATIONS ARE NOT UNDER NWS QUALITY CONTROL. THEY ALSO MAY NOT
  REPORT WEATHER SUCH AS PRECIPITATION OR FOG.

ILZ001-002-007-009-015-016-024-222200-
NORTHWEST ILLINOIS

CITY           SKY/WX    TMP DP  RH WIND       PRES   REMARKS
MOLINE         CLOUDY    36  15  42 W7        30.28S WCI  30
STERLING*      MOSUNNY   33  16  49 MISG        N/A
SAVANNA*       CLOUDY    33  15  48 SW8       30.27F WCI  26
$$

ILZ003-004-008-010-011-017-018-222200-
NORTH CENTRAL ILLINOIS

CITY           SKY/WX    TMP DP  RH WIND       PRES   REMARKS
ROCKFORD       CLOUDY    37  15  40 SW7       30.27F WCI  32
FREEPORT*      MOSUNNY   31  15  52 SW8       30.27F WCI  24
ROCHELLE*      CLOUDY    31  18  58 W9        30.27F WCI  23
DE KALB*       CLOUDY    32  18  55 W12       30.27S WCI  23
PERU*          SUNNY     33  14  45 SW6       30.28F WCI  28
$$

ILZ005-006-012>014-019>023-222200-
NORTHEAST ILLINOIS

CITY           SKY/WX    TMP DP  RH WIND       PRES   REMARKS
CHICAGO-OHARE  PTSUNNY   34  14  43 W8        30.26S WCI  27
CHICAGO-MIDWAY MOSUNNY   34  14  43 W8        30.27S WCI  27
AURORA         SUNNY     33  17  51 SW10      30.27F WCI  25
LANSING*       SUNNY     34  18  51 SW6       30.27F WCI  29
JOLIET*        SUNNY     35  18  50 W5        30.29S WCI  31
WAUKEGAN       SUNNY     33  14  45 VRB7      30.25S WCI  27
DUPAGE AIRPORT SUNNY     33  17  51 SW8       30.26S WCI  26
KANKAKEE*      SUNNY     34  16  47 W5        30.29F WCI  30
WHEELING       SUNNY     34  15  46 W7        30.28S WCI  28
MORRIS*        SUNNY     33  17  50 W6        30.28S WCI  28
ROMEOVILLE*    SUNNY     33  17  51 W7        30.28S WCI  27
NORTHERLY ISL    N/A     35  13  40 SW5         N/A  WCI  31
$$

LMZ740>746-222200-
SOUTHERN LAKE MICHIGAN

STATION/POSITION SKY/WX   TEMP    WIND        PRES    VSBY  WAVE
                          AIR SEA DIR/SP/G                  HT/PER
                          (F)     (DEG/KT/KT) (MB)    (MI)  (FT/S)
SOUTHERN BUOY              31 47  280/  8/ 12 1025.9          2/ 6
HARRISON CRIB              34     260/  5/  6   N/A
BURNHAM HARBOR             35     250/  3/  8   N/A
CALUMET HARBOR             35     210/  4/  8 1024.2F
BURNS HARBOR               34     290/  4/  6 1025.4F
MICHIGAN CITY              33     260/  5/  7   N/A
$$

ILZ025>027-034>036-040-047-049-050-058-095>099-222200-
WEST-CENTRAL ILLINOIS

CITY           SKY/WX    TMP DP  RH WIND       PRES   REMARKS
QUINCY         SUNNY     36  14  40 SW5       30.28F WCI  32
GALESBURG*     SUNNY     35  19  50 SW5       30.28F WCI  31
MACOMB*        SUNNY     37  17  44 SW5       30.30F WCI  33
JACKSONVILLE*  SUNNY     36  15  42 CALM      30.31F
PITTSFIELD*    SUNNY     38  17  43 SW3       30.30F
$$

ILZ028>032-037-038-041>044-048-051>054-059>061-222200-
CENTRAL ILLINOIS

CITY           SKY/WX    TMP DP  RH WIND       PRES   REMARKS
PONTIAC        SUNNY     35  16  46 W6        30.29F WCI  30
BLOOMINGTON    SUNNY     35  16  45 W5        30.29F WCI  31
DECATUR        SUNNY     37  16  42 NW7       30.31R WCI  32
PEORIA         SUNNY     36  15  42 S5        30.28F WCI  32
LACON*         SUNNY     35  15  44 W5        30.27F WCI  31
LINCOLN*       SUNNY     36  19  50 W3        30.31S
SPRINGFIELD    SUNNY     39  17  41 NW5       30.31F
TAYLORVILLE    SUNNY     36  18  48 NW5       30.31S WCI  32
$$

ILZ033-039-045-046-055>057-062-063-222200-
EAST-CENTRAL ILLINOIS

CITY           SKY/WX    TMP DP  RH WIND       PRES   REMARKS
CHAMPAIGN      SUNNY     37  17  44 NW8       30.29F WCI  31
DANVILLE*      SUNNY     36  20  52 NW3       30.26F
RANTOUL*       SUNNY     37  19  49 NW5       30.30R WCI  33
MATTOON        SUNNY     37  19  48 N8        30.29F WCI  31
PARIS*         SUNNY     36  24  61 NW6       30.30S WCI  31
$$

ILZ079-100>102-222200-
SOUTHWEST ILLINOIS

CITY           SKY/WX    TMP DP  RH WIND       PRES   REMARKS
ALTON          SUNNY     37  19  48 NW6       30.32S WCI  33
CAHOKIA*       SUNNY     40  16  37 CALM      30.31F
SPARTA*        SUNNY     38  22  53 N5        30.32R WCI  34
$$

ILZ064>066-069>071-074>076-080>082-084>086-088>090-092>094-222200-
SOUTH-CENTRAL ILLINOIS

CITY           SKY/WX    TMP DP  RH WIND       PRES   REMARKS
CARBONDALE     SUNNY     40  20  44 N7        30.30F
CAIRO*         SUNNY     43  22  43 N8        30.28F
EFFINGHAM*     SUNNY     38  20  49 NW3       30.31F
MARION         SUNNY     41  19  42 N12       30.30F
MT. VERNON     SUNNY     39  18  42 NE3       30.30F
CENTRALIA*     SUNNY     39  21  48 CALM      30.30S
SALEM*         SUNNY     39  19  44 N6        30.30S
METROPOLIS*    SUNNY     44  21  41 N6        30.29S
$$

ILZ067-068-072-073-078-083-087-091-222200-
SOUTHEAST ILLINOIS

CITY           SKY/WX    TMP DP  RH WIND       PRES   REMARKS
LAWRENCEVILLE  SUNNY     40  22  48 N8        30.30F
FLORA*         SUNNY     39  19  44 N5        30.30F
FAIRFIELD*     SUNNY     38  20  47 CALM      30.29F
HARRISBURG*    SUNNY     40  22  49 NE8       30.30F
ROBINSON*      SUNNY     37  19  49 NW6       30.31F WCI  32
CARMI*         SUNNY     40  21  46 N9        30.29F
$$

ABBREVIATIONS USED IN REMARKS
   TC - TEMPERATURE IN CELSIUS
  WCI - WIND CHILL INDEX
   HX - HEAT INDEX
  VSB - VISIBILITY
$$





USA.gov is the U.S. government's official web portal to all federal, state and local government web resources and services.